#timestamp,LO_Frequency,Hit,StdDev 
1456297215.3,286046998.6,N
1456297235.1,286046999.2,N
1456297255.9,286046996.9,N
1456297275.7,286047000.3,N
1456297295.5,286047001.3,N
1456297315.3,286047002.4,N
1456297335.2,286047002.6,N
1456297355.0,286047002.4,N
1456297355.9,286047002.4,N
1456297375.7,286046999.7,N
1456297395.6,286046997.2,N
1456297415.4,286046996.7,N
1456297435.2,286046993.7,N
1456297455.1,286046996.4,N
1456297456.0,286046996.4,N
1456297475.8,286046998.0,N
1456297495.6,286046994.9,N
1456297515.5,286046997.2,N
1456297535.3,286047000.3,N
1456297555.1,286047000.3,N
1456297575.9,286047002.5,N
1456297595.7,286047003.6,N
1456297615.5,286047003.2,N
1456297635.3,286047005.7,N
1456297655.2,286047005.5,N
1456297675.0,286047006.0,N
1456297675.9,286047006.0,N
1456297695.7,286047002.0,N
1456297715.6,286047001.4,N
1456297735.4,286047000.2,N
1456297755.2,286046996.8,N
1456297775.1,286046998.0,N
1456297776.0,286046998.0,N
1456297795.8,286046993.3,N
1456297815.6,286046993.3,N
1456297835.5,286046991.6,N
1456297855.3,286046987.4,Y
1456297875.1,286046987.9,P
1456297895.9,286046985.5,N
1456297915.7,286046982.7,N
1456297935.5,286046982.3,N
1456297955.4,286046981.9,N
1456297975.2,286046981.4,Y
1456297995.0,286046996.2,P
1456297995.9,286046996.2,N
1456298015.8,286046997.6,N
1456298035.6,286046995.5,N
1456298055.4,286046994.3,N
1456298075.3,286046992.2,N
1456298095.1,286046990.5,N
1456298096.0,286046990.5,N
1456298115.8,286046992.2,N
1456298135.7,286046988.6,Y
1456298155.5,286046993.9,P
1456298175.3,286046993.6,P
1456298195.1,286046993.7,P
1456298215.9,286046993.7,Y
1456298235.7,286047000.7,P
1456298255.6,286047000.2,N
1456298275.4,286047002.7,N
1456298295.2,286047001.8,N
1456298315.0,286047003.3,N
1456298316.0,286047003.3,N
1456298335.8,286047005.1,N
1456298355.6,286047008.8,N
1456298375.5,286047013.9,Y
1456298395.3,286047011.1,P
1456298415.1,286047016.0,P
1456298435.8,286047019.8,P
1456298455.7,286047021.5,Y
1456298475.5,286047009.9,P
1456298495.3,286047009.6,P
1456298515.2,286047011.5,P
1456298535.0,286047015.5,Y
1456298535.9,286047015.5,P
1456298555.8,286047005.0,N
1456298575.6,286047006.8,N
1456298595.4,286047010.6,N
1456298615.2,286047007.8,N
1456298635.1,286047012.1,Y
1456298636.0,286047012.1,P
1456298655.8,286047002.1,N
1456298675.7,286047004.2,N
1456298695.5,286047002.6,N
1456298715.3,286047000.9,N
1456298735.1,286047006.0,N
1456298755.9,286047005.9,N
1456298775.7,286047005.9,N
1456298795.5,286047004.2,N
1456298815.4,286047002.2,N
1456298835.2,286047004.0,N
1456298855.0,286047000.2,N
1456298855.9,286047000.2,N
1456298875.8,286047003.1,N
1456298895.6,286047005.0,N
1456298915.4,286047007.5,N
1456298935.3,286047006.6,N
1456298955.1,286047008.6,N
1456298956.0,286047008.6,N
1456298975.8,286047010.4,Y
1456298995.7,286047001.8,P
1456299015.5,286047002.2,N
1456299035.3,286047002.1,N
1456299055.2,286047004.0,Y
1456299075.9,286046997.0,P
1456299095.7,286046993.4,N
1456299115.6,286046993.9,N
1456299135.4,286046994.0,N
1456299155.2,286046992.7,N
1456299175.0,286046993.1,N
1456299176.0,286046993.1,N
1456299195.8,286046990.7,N
1456299215.6,286046991.2,N
1456299235.5,286046989.3,Y
1456299255.3,286046994.3,P
1456299275.1,286046996.0,P
1456299295.8,286046992.8,P
1456299315.7,286046993.0,Y
1456299335.5,286046999.4,P
1456299355.4,286047001.0,N
1456299375.2,286047000.0,N
1456299395.0,286047002.7,N
1456299395.9,286047002.7,N
1456299415.7,286047002.9,N
1456299435.6,286047005.8,N
1456299455.4,286047006.3,N
1456299475.2,286047004.8,N
1456299495.1,286047003.0,N
1456299496.0,286047003.0,N
1456299515.8,286047002.9,N
1456299535.6,286047005.6,N
1456299555.5,286047003.3,N
1456299575.3,286047004.7,N
1456299595.1,286047002.9,N
1456299615.9,286047003.3,N
1456299635.7,286047005.8,N
1456299655.5,286047008.4,Y
1456299675.4,286047006.2,P
1456299695.2,286047009.2,P
1456299715.0,286047008.3,P
1456299715.9,286047008.3,Y
1456299735.8,286046998.7,P
1456299755.6,286047000.0,N
1456299775.4,286047002.3,N
1456299795.3,286047002.1,N
1456299815.1,286047000.3,N
1456299816.0,286047000.3,N
1456299835.8,286047000.1,N
1456299855.7,286047001.1,N
1456299875.5,286046998.1,N
1456299895.3,286047000.0,N
1456299915.1,286046999.5,N
1456299935.9,286046995.6,N
1456299955.7,286046994.8,N
1456299975.5,286046997.4,N
1456299995.4,286046995.3,N
1456300015.2,286046995.6,N
1456300035.0,286046994.5,N
1456300035.9,286046994.5,N
1456300055.8,286046992.1,N
1456300075.6,286046992.1,N
1456300095.4,286046994.3,N
1456300115.3,286046991.7,N
1456300135.1,286046993.9,N
1456300136.0,286046993.9,N
1456300155.8,286046994.5,N
1456300175.7,286046993.8,N
1456300195.5,286046995.6,N
1456300215.3,286046992.5,N
1456300235.1,286046990.8,N
1456300255.9,286046994.4,N
1456300275.7,286046993.6,N
1456300295.5,286046994.8,N
1456300315.4,286046991.7,N
1456300335.2,286046991.7,N
1456300355.0,286046993.6,N
1456300355.9,286046993.6,N
1456300375.8,286046995.8,N
1456300395.6,286046997.4,N
1456300415.4,286046995.5,N
1456300435.3,286046993.5,Y
1456300455.1,286046998.6,P
1456300456.0,286046998.6,N
1456300475.8,286046998.2,N
1456300495.7,286046998.4,N
1456300515.5,286046996.6,N
1456300535.4,286047000.1,N
1456300555.2,286047002.6,N
1456300575.0,286046999.4,N
1456300575.9,286046999.4,N
1456300595.8,286047000.0,N
1456300615.6,286046999.7,N
1456300635.4,286047005.7,N
1456300655.3,286047004.8,N
1456300675.1,286047001.3,N
1456300676.0,286047001.3,N
1456300695.8,286047003.0,N
1456300715.7,286047005.9,N
1456300735.5,286047005.1,N
1456300755.3,286047003.3,N
1456300775.2,286047006.3,N
1456300795.9,286047004.5,N
